Time,TemperatureF,DewpointF,PressureIn,WindDirection,WindDirectionDegrees,WindSpeedMPH,WindSpeedGustMPH,Humidity,HourlyPrecipIn,Conditions,Clouds,dailyrainin,SoftwareType,DateUTC
2013-06-22 11:53:00,-999.0,-99.9,30.21,SSE,156,13.0,15.0,-999,-99.99,,,-99.99,,2013-06-22 15:53:00,
2013-06-22 12:02:00,-999.0,-99.9,30.21,SSE,163,11.0,14.0,-999,-99.99,,,-99.99,,2013-06-22 16:02:00,
2013-06-22 12:22:00,-999.0,-99.9,30.21,South,174,14.0,17.0,-999,-99.99,,,-99.99,,2013-06-22 16:22:00,
2013-06-22 12:34:00,-999.0,-99.9,30.21,South,176,17.0,19.0,-999,-99.99,,,-99.99,,2013-06-22 16:34:00,
2013-06-22 12:43:00,76.0,-99.9,30.21,SSE,162,9.0,16.0,-999,-99.99,,,-99.99,,2013-06-22 16:43:00,
2013-06-22 12:52:00,-999.0,-99.9,30.21,SSE,167,12.0,15.0,-999,-99.99,,,-99.99,,2013-06-22 16:52:00,
2013-06-22 13:02:00,76.0,-99.9,30.21,North,-999,-999.0,-999.0,-999,-99.99,,,-99.99,,2013-06-22 17:02:00,
2013-06-22 13:34:00,77.0,-99.9,30.21,North,-999,-999.0,-999.0,-999,-99.99,,,-99.99,,2013-06-22 17:34:00,
2013-06-22 13:52:00,-999.0,-99.9,30.21,SE,143,11.0,16.0,-999,-99.99,,,-99.99,,2013-06-22 17:52:00,
2013-06-22 14:02:00,77.0,-99.9,30.21,North,-999,-999.0,-999.0,-999,-99.99,,,-99.99,,2013-06-22 18:02:00,
2013-06-22 14:23:00,77.0,-99.9,30.21,SE,135,13.0,15.0,-999,-99.99,,,-99.99,,2013-06-22 18:23:00,
2013-06-22 14:52:00,77.0,-99.9,30.20,North,-999,-999.0,-999.0,-999,-99.99,,,-99.99,,2013-06-22 18:52:00,
2013-06-22 15:01:00,77.0,-99.9,30.20,North,-999,-999.0,-999.0,-999,-99.99,,,-99.99,,2013-06-22 19:01:00,
2013-06-22 15:12:00,78.0,-99.9,30.20,North,-999,-999.0,-999.0,-999,-99.99,,,-99.99,,2013-06-22 19:12:00,
2013-06-22 15:33:00,76.0,-99.9,30.21,North,-999,-999.0,-999.0,-999,-99.99,,,-99.99,,2013-06-22 19:33:00,
2013-06-22 15:53:00,-999.0,-99.9,30.20,SE,139,7.0,12.0,-999,-99.99,,,-99.99,,2013-06-22 19:53:00,
2013-06-22 16:02:00,-999.0,-99.9,30.19,ESE,119,6.0,10.0,-999,-99.99,,,-99.99,,2013-06-22 20:02:00,
2013-06-22 16:34:00,-999.0,-99.9,30.19,ESE,110,9.0,12.0,-999,-99.99,,,-99.99,,2013-06-22 20:34:00,
2013-06-22 16:43:00,-999.0,-99.9,30.19,ESE,121,11.0,16.0,-999,-99.99,,,-99.99,,2013-06-22 20:43:00,
2013-06-22 16:53:00,76.0,-99.9,30.19,North,-999,-999.0,-999.0,-999,-99.99,,,-99.99,,2013-06-22 20:53:00,
2013-06-22 17:01:00,-999.0,-99.9,30.20,ESE,118,12.0,14.0,-999,-99.99,,,-99.99,,2013-06-22 21:01:00,
2013-06-22 17:22:00,-999.0,-99.9,30.19,ESE,106,8.0,12.0,-999,-99.99,,,-99.99,,2013-06-22 21:22:00,
2013-06-22 17:34:00,-999.0,-99.9,30.19,ESE,109,7.0,10.0,-999,-99.99,,,-99.99,,2013-06-22 21:34:00,
2013-06-22 17:43:00,-999.0,-99.9,30.19,ESE,114,11.0,14.0,-999,-99.99,,,-99.99,,2013-06-22 21:43:00,
2013-06-22 17:53:00,-999.0,-99.9,30.19,SE,125,11.0,12.0,-999,-99.99,,,-99.99,,2013-06-22 21:53:00,
2013-06-22 18:02:00,-999.0,-99.9,30.18,ESE,113,8.0,11.0,-999,-99.99,,,-99.99,,2013-06-22 22:02:00,
2013-06-22 18:12:00,77.0,-99.9,30.19,SE,135,13.0,15.0,-999,-99.99,,,-99.99,,2013-06-22 22:12:00,
2013-06-22 18:24:00,-999.0,-99.9,30.19,SE,133,16.0,18.0,-999,-99.99,,,-99.99,,2013-06-22 22:24:00,
2013-06-22 18:33:00,-999.0,-99.9,30.18,SE,133,16.0,19.0,-999,-99.99,,,-99.99,,2013-06-22 22:33:00,
2013-06-22 18:43:00,76.0,-99.9,30.18,SE,134,16.0,19.0,-999,-99.99,,,-99.99,,2013-06-22 22:43:00,
2013-06-22 18:52:00,-999.0,-99.9,30.17,SE,137,15.0,20.0,-999,-99.99,,,-99.99,,2013-06-22 22:52:00,
2013-06-22 19:02:00,-999.0,-99.9,30.17,SE,131,15.0,19.0,-999,-99.99,,,-99.99,,2013-06-22 23:02:00,
2013-06-22 19:11:00,-999.0,-99.9,30.17,SE,131,15.0,19.0,-999,-99.99,,,-99.99,,2013-06-22 23:11:00,
2013-06-22 19:22:00,-999.0,-99.9,30.16,SE,134,16.0,22.0,-999,-99.99,,,-99.99,,2013-06-22 23:22:00,
2013-06-22 19:34:00,-999.0,-99.9,30.17,SE,144,14.0,19.0,-999,-99.99,,,-99.99,,2013-06-22 23:34:00,
2013-06-22 19:43:00,76.0,-99.9,30.16,SSE,149,13.0,17.0,-999,-99.99,,,-99.99,,2013-06-22 23:43:00,
2013-06-22 19:53:00,76.0,-99.9,30.17,North,-999,-999.0,-999.0,-999,-99.99,,,-99.99,,2013-06-22 23:53:00,
2013-06-22 20:01:00,-999.0,-99.9,30.17,SSE,149,11.0,14.0,-999,-99.99,,,-99.99,,2013-06-23 00:01:00,
2013-06-22 20:11:00,-999.0,-99.9,30.17,SE,146,10.0,14.0,-999,-99.99,,,-99.99,,2013-06-23 00:11:00,
2013-06-22 20:34:00,76.0,-99.9,30.17,North,-999,-999.0,-999.0,-999,-99.99,,,-99.99,,2013-06-23 00:34:00,
2013-06-22 20:42:00,-999.0,-99.9,30.17,SSE,160,12.0,16.0,-999,-99.99,,,-99.99,,2013-06-23 00:42:00,
2013-06-22 20:53:00,76.0,-99.9,30.17,North,-999,-999.0,-999.0,-999,-99.99,,,-99.99,,2013-06-23 00:53:00,
2013-06-22 21:01:00,76.0,-99.9,30.17,North,-999,-999.0,-999.0,-999,-99.99,,,-99.99,,2013-06-23 01:01:00,
2013-06-22 21:12:00,76.0,-99.9,30.16,SSE,158,11.0,15.0,-999,-99.99,,,-99.99,,2013-06-23 01:12:00,
2013-06-22 21:32:00,76.0,-99.9,30.17,North,-999,-999.0,-999.0,-999,-99.99,,,-99.99,,2013-06-23 01:32:00,
2013-06-22 21:42:00,76.0,-99.9,30.17,North,-999,-999.0,-999.0,-999,-99.99,,,-99.99,,2013-06-23 01:42:00,
2013-06-22 21:52:00,-999.0,-99.9,30.17,SSE,157,11.0,15.0,-999,-99.99,,,-99.99,,2013-06-23 01:52:00,
2013-06-22 22:01:00,-999.0,-99.9,30.17,SSE,156,11.0,15.0,-999,-99.99,,,-99.99,,2013-06-23 02:01:00,
2013-06-22 22:11:00,76.0,-99.9,30.18,North,-999,-999.0,-999.0,-999,-99.99,,,-99.99,,2013-06-23 02:11:00,
2013-06-22 22:21:00,-999.0,-99.9,30.18,SSE,154,11.0,15.0,-999,-99.99,,,-99.99,,2013-06-23 02:21:00,
2013-06-22 22:31:00,77.0,-99.9,30.17,North,-999,-999.0,-999.0,-999,-99.99,,,-99.99,,2013-06-23 02:31:00,
2013-06-22 22:41:00,77.0,-99.9,30.18,SSE,154,11.0,17.0,-999,-99.99,,,-99.99,,2013-06-23 02:41:00,
2013-06-22 22:52:00,-999.0,-99.9,30.18,SSE,149,10.0,13.0,-999,-99.99,,,-99.99,,2013-06-23 02:52:00,
2013-06-22 23:01:00,77.0,-99.9,30.18,North,-999,-999.0,-999.0,-999,-99.99,,,-99.99,,2013-06-23 03:01:00,
2013-06-22 23:11:00,77.0,-99.9,30.18,North,-999,-999.0,-999.0,-999,-99.99,,,-99.99,,2013-06-23 03:11:00,
2013-06-22 23:21:00,-999.0,-99.9,30.18,SSE,159,12.0,16.0,-999,-99.99,,,-99.99,,2013-06-23 03:21:00,
2013-06-22 23:31:00,-999.0,-99.9,30.18,SSE,165,11.0,15.0,-999,-99.99,,,-99.99,,2013-06-23 03:31:00,
2013-06-22 23:41:00,77.0,-99.9,30.18,North,-999,-999.0,-999.0,-999,-99.99,,,-99.99,,2013-06-23 03:41:00,
2013-06-22 23:52:00,77.0,-99.9,30.18,North,-999,-999.0,-999.0,-999,-99.99,,,-99.99,,2013-06-23 03:52:00,